Location: Mentone
(34.5413°N, 85.5351°W)
Time: 19:48:57
(UTC-05:00)

Cosmos 2026 Rocket - Visible Passes

Search period start: 16 April 2014 00:00
Search period end: 26 April 2014 00:00
Orbit: 939 x 1003 km, 82.9° (Epoch: 16 April)

Date Brightness Start Highest point End Pass type
(mag) Time Alt. Az. Time Alt. Az. Time Alt. Az.
16 Apr 5.1 03:42:38 10° N 03:48:22 41° E 03:54:08 10° SSE visible
16 Apr 5.0 05:28:34 10° NW 05:33:19 24° W 05:38:06 10° SW visible
17 Apr 4.1 04:06:23 10° N 04:12:31 76° E 04:18:42 10° S visible
18 Apr 6.4 02:47:00 10° NNE 02:50:52 17° ENE 02:54:45 10° ESE visible
18 Apr 4.0 04:30:31 10° NNW 04:36:31 59° W 04:42:35 10° S visible
19 Apr 5.5 03:09:50 10° NNE 03:15:15 32° ENE 03:20:41 10° SE visible
19 Apr 4.7 04:55:06 10° NNW 05:00:23 31° W 05:05:43 10° SSW visible
20 Apr 4.4 03:33:23 10° N 03:39:27 59° E 03:43:57 19° SSE visible
20 Apr 5.4 05:20:29 10° NW 05:24:07 16° W 05:27:46 10° WSW visible
21 Apr 6.5 02:14:54 10° NE 02:17:39 13° ENE 02:20:24 10° E visible
21 Apr 3.8 03:57:22 10° N 04:03:30 76° W 04:06:49 30° S visible
22 Apr 5.8 02:37:08 10° NNE 02:42:06 25° ENE 02:45:22 17° ESE visible
22 Apr 4.4 04:21:45 10° NNW 04:27:26 40° W 04:29:52 29° SW visible
23 Apr 4.8 03:00:28 10° N 03:06:22 46° E 03:08:33 34° SE visible
23 Apr 5.2 04:46:43 10° NW 04:51:13 22° W 04:53:04 19° WSW visible
24 Apr 3.9 03:24:17 10° N 03:30:29 86° E 03:31:51 58° SSE visible
24 Apr 5.8 05:13:46 10° WNW 05:14:51 11° W 05:15:57 10° W visible
25 Apr 6.0 02:04:34 10° NNE 02:08:56 20° ENE 02:10:42 18° E visible
25 Apr 4.1 03:48:30 10° NNW 03:54:28 52° W 03:55:14 49° WSW visible
